Regional Weather Roundup
Issued by NWS

Home | Current Version | Previous Version | Graphics & Text | Print | Product List | Glossary On
Versions: 1 2 3 4 5 6 7 8 9 10 11 12 13 14 15 16 17 18 19 20 21 22 23 24 25 26 27 28 29 30 31 32 33 34 35 36 37 38 39 40 41 42 43 44 45 46 47 48
000
ASUS45 KBOU 061307
RWRCO

WEATHER ROUNDUP FOR COLORADO
NATIONAL WEATHER SERVICE DENVER/BOULDER CO
600 AM MST SAT FEB 06 2016

NOTE: "FAIR" INDICATES FEW OR NO CLOUDS BELOW 12000 FEET WITH NO
SIGNIFICANT WEATHER AND/OR OBSTRUCTIONS TO VISIBILITY.

COZ001>005-013-030-031-061400-
...NORTHWEST COLORADO...

CITY           SKY/WX    TMP DP  RH WIND       PRES   REMARKS
CRAIG          CLOUDY   -13 -18  78 CALM      30.50R
HAYDEN         CLOUDY     5   0  78 SE10      30.46S WCI -10
MEEKER         CLOUDY    -1  -6  79 NE6       30.49R WCI -13
MOUNT WERNER   NOT AVBL
STEAMBOAT SPGS CLOUDY     2  -1  87 CALM      30.46F
WALDEN         CLOUDY     3  -4  72 SE8       30.39S WCI -10
$$

COZ006>008-011-061400-
...WEST CENTRAL VALLEYS...

CITY           SKY/WX    TMP DP  RH WIND       PRES   REMARKS
GRAND JUNCTION CLOUDY     2   0  91 CALM      30.59S
MONTROSE       CLOUDY     6   0  76 S9        30.57R WCI  -8
EAGLE          CLOUDY    -4  -6  92 E3        30.60S VSB 1/2
RIFLE          CLOUDY     1  -4  79 SE5       30.57S WCI  -9
DELTA          CLOUDY    11   7  83 CALM      30.59R
NUCLA          NOT AVBL
$$

COZ017>023-064>068-061400-
...SOUTHWEST COLORADO...

CITY           SKY/WX    TMP DP  RH WIND       PRES   REMARKS
DURANGO        CLOUDY    -1  -4  87 NE3       30.45S
CORTEZ         CLOUDY     6   1  80 NE8       30.50R WCI  -7
PAGOSA SPRINGS CLOUDY   N/A N/A N/A CALM      30.42F
TELLURIDE      CLOUDY    13   5  72 SE8       30.44S WCI   1
WOLF CREEK PAS CLOUDY    19   0  42 N9        30.39S WCI   9
$$

COZ009-010-012-014-032>034-037-058>063-061400-
...CENTRAL COLORADO...

CITY           SKY/WX    TMP DP  RH WIND       PRES   REMARKS
ASPEN          LGT SNOW   1  -3  83 SE6       30.45S FOG     WCI -10
BUENA VISTA    CLOUDY     2  -5  70 CALM      30.36S
COPPER MTN     LGT SNOW  12   5  73 W13G20    30.34S WCI  -3
BERTHOUD PASS  CLOUDY     3  -8  60 N26G36    30.27S WCI -20
COTTONWOOD PAS CLOUDY    23   9  54 W12G25    30.31R WCI  12
GUNNISON       CLOUDY   -20 N/A N/A CALM      30.57R
KREMMLING      CLOUDY   N/A N/A N/A CALM      30.52S
LEADVILLE      CLOUDY     4  -1  80 N9        30.36S WCI -10
MONARCH PASS     N/A      5   1  85 MISG      30.39R
SALIDA         NOT AVBL
SUNLIGHT       CLOUDY    14  10  85 CALM        N/A
WILKERSON PASS CLOUDY    18   3  53 W16G25    30.26S WCI   3
$$

COZ069>075-061400-
...SAN LUIS VALLEY/SANGRE DE CRISTO MOUNTAINS...

CITY           SKY/WX    TMP DP  RH WIND       PRES   REMARKS
ALAMOSA        CLOUDY    -6 -11  79 CALM      30.43R
LA VETA PASS   CLOUDY     9   0  66 MISG      30.26R
SAGUACHE       CLOUDY    12   1  62 NW10      30.42R WCI  -1
$$

COZ035-036-038>040-061400-
...NORTHERN COLORADO FRONT RANGE...

CITY           SKY/WX    TMP DP  RH WIND       PRES   REMARKS
DENVER INTL AP CLOUDY    26   7  44 SW17      30.18F WCI  13
DMNS CITY PARK   N/A     25   6  44 S10       30.20S WCI  15
AURORA         PTCLDY    21   6  53 S13       30.19F WCI   8
FRONT RANGE AP NOT AVBL
ERIE MUNI ARPT CLOUDY     9   6  88 CALM      30.20S
BOULDER MUN AP CLOUDY    21   9  58 CALM      30.18F
CENTENNIAL     CLOUDY    23   6  48 S12       30.20S WCI  12
BROOMFIELD     CLEAR     21   9  58 CALM      30.19F
FORT COLLINS   CLOUDY    10   7  85 CALM      30.20S
LONGMONT       CLOUDY     9   2  74 CALM      30.23S
$$

COZ041-046-047-076>085-087-088-061400-
...PIKES PEAK/PALMER DIVIDE AND SOUTHERN FOOTHILLS...

CITY           SKY/WX    TMP DP  RH WIND       PRES   REMARKS
COLO. SPRINGS  CLOUDY    17   2  51 N10       30.23F WCI   5
A. F. ACADEMY  CLOUDY     9  -2  62 N8        30.22F WCI  -3
SCHRIEVER AFB  FAIR      23   1  39 W8        30.23F WCI  13
ELLICOTT       NOT AVBL
FALCON         CLOUDY    20   2  46 W9        30.23S WCI   9
FORT CARSON    CLOUDY    16   5  62 NW16      30.21F WCI   1
LIMON          CLOUDY    -2  -7  79 N6        30.23S WCI -14
MONUMENT HILL  CLOUDY    18   1  49 SW8       30.22S WCI   7
TRINIDAD       CLOUDY    18   6  59 W12       30.27R WCI   5
$$

COZ042>045-048>051-090-091-061400-
...NORTHEAST COLORADO...

CITY           SKY/WX    TMP DP  RH WIND       PRES   REMARKS
GREELEY ARPT   CLOUDY     1   0  92 NW7       30.23S WCI -11
AKRON          CLOUDY    19   5  54 W9        30.19F WCI   8
BURLINGTON     CLOUDY    18   7  62 W13       30.23F WCI   5
WRAY           CLOUDY    14   7  72 W7        30.22F WCI   4
STERLING       CLOUDY     7   1  78 S8        30.22S WCI  -6
HOLYOKE        CLOUDY    18  10  73 W12       30.21S WCI   5
FORT MORGAN    CLOUDY     1  -2  85 W13       30.22S WCI -16
$$

COZ086-089-092>099-061400-
...SOUTHEAST COLORADO...

CITY           SKY/WX    TMP DP  RH WIND       PRES   REMARKS
PUEBLO         CLOUDY    13   6  74 CALM      30.26F
LA JUNTA       CLOUDY    12   8  84 W6        30.29F WCI   3
LAMAR          CLEAR     13  10  88 S9        30.29F WCI   1
SPRINGFIELD      N/A     15   9  76 W6        30.28S WCI   6
$$



USA.gov is the U.S. government's official web portal to all federal, state and local government web resources and services.